CW8822 Caguas PR US current weather conditions

sailwx.info

Wind from 113 at 1 knots gusting 6

Air temperature 25.6° C
Dewpoint 23.2° C

Last reported at 2020-Jul-11 04:01 UTC.
Time now 2020-Jul-11 05:02 UTC

Location: N 18°12' W 066°01'.
View on Google Maps.

See reports from other nearby stations

  
Tides and Currents Weather Stations Pressure Air Temp Water Temp Dewpoint Dewpoint Depression Visibility Wind Speed Wind Dir Waves Ship Positions
date/time (UTC)wind fromknots sea level pressurealtimeterstation pressurevisibilityair tempwater tempwave heightnotes
2020-Jul-11 04:01 113 1 gusting 6 25.6
2020-Jul-11 03:45 119 2 gusting 6 26.1
2020-Jul-11 03:31 101 2 gusting 6 26.1
2020-Jul-11 03:15 167 1 gusting 3 25.6
2020-Jul-11 02:46 128 1 gusting 5 26.1
2020-Jul-11 02:30 115 1 gusting 3 26.1
2020-Jul-11 02:15 096 0 gusting 2 26.1
2020-Jul-11 02:00 096 26.1
2020-Jul-11 01:45 096 0 gusting 2 26.1
2020-Jul-11 01:30 094 26.1
2020-Jul-11 01:15 094 26.1
2020-Jul-11 01:01 094 26.1
2020-Jul-11 00:45 094 26.1
2020-Jul-11 00:30 094 26.1
2020-Jul-11 00:15 076 0 gusting 2 26.7
2020-Jul-11 00:00 135 2 gusting 9 26.7
2020-Jul-10 23:45 089 1 gusting 8 26.7
2020-Jul-10 23:30 103 1 gusting 3 26.7
2020-Jul-10 23:15 115 3 gusting 6 26.7
2020-Jul-10 23:00 148 2 gusting 6 26.7
2020-Jul-10 22:45 192 2 gusting 6 26.7
2020-Jul-10 22:30 101 2 gusting 6 26.7
2020-Jul-10 22:15 105 3 gusting 8 26.7
2020-Jul-10 22:01 119 3 gusting 11 26.7
2020-Jul-10 21:46 155 4 gusting 11 26.7
2020-Jul-10 21:30 133 6 gusting 16 28.3
2020-Jul-10 21:17 092 4 gusting 9 27.8
2020-Jul-10 21:01 096 4 gusting 9 27.2
2020-Jul-10 20:45 142 3 gusting 12 26.1
2020-Jul-10 20:31 116 6 gusting 17 26.1
2020-Jul-10 20:15 099 6 gusting 13 30.6
2020-Jul-10 20:00 148 6 gusting 14 29.4
2020-Jul-10 19:46 111 3 gusting 10 30.0
2020-Jul-10 19:31 064 8 gusting 13 30.6
2020-Jul-10 19:15 096 6 gusting 13 30.0
2020-Jul-10 19:00 094 4 gusting 16 30.6
2020-Jul-10 18:45 082 4 gusting 14 31.1
2020-Jul-10 18:30 174 9 gusting 15 30.6
2020-Jul-10 18:15 341 6 gusting 13 30.6
2020-Jul-10 18:00 288 3 gusting 14 30.6
2020-Jul-10 17:45 123 5 gusting 16 31.1
2020-Jul-10 17:31 148 6 gusting 18 31.1
2020-Jul-10 17:15 170 3 gusting 16 31.7
2020-Jul-10 17:00 071 6 gusting 12 31.1
2020-Jul-10 16:45 118 3 gusting 11 31.7
2020-Jul-10 16:30 170 6 gusting 13 30.6
2020-Jul-10 16:15 081 6 gusting 14 31.1
2020-Jul-10 16:00 143 6 gusting 13 30.6
2020-Jul-10 15:45 150 6 gusting 13 30.0
2020-Jul-10 15:34 116 2 gusting 10 30.6
2020-Jul-10 15:16 139 4 gusting 11 29.4
2020-Jul-10 15:02 154 4 gusting 9 29.4
2020-Jul-10 14:46 109 2 gusting 9 29.4
2020-Jul-10 14:31 133 4 gusting 10 28.3
2020-Jul-10 14:16 109 2 gusting 8 28.3
2020-Jul-10 14:02 127 1 gusting 6 28.3
2020-Jul-10 13:46 102 3 gusting 9 28.3
2020-Jul-10 13:31 081 2 gusting 13 28.9
2020-Jul-10 13:17 099 6 gusting 12 28.9
2020-Jul-10 13:01 119 5 gusting 14 28.3
2020-Jul-10 12:46 103 3 gusting 7 27.8
2020-Jul-10 12:32 101 3 gusting 8 27.8
2020-Jul-10 12:16 109 4 gusting 7 27.8
2020-Jul-10 12:00 069 1 gusting 6 27.8
2020-Jul-10 11:46 069 0 gusting 3 27.2
2020-Jul-10 11:31 109 0 gusting 2 26.1
2020-Jul-10 11:15 009 25.6
2020-Jul-10 11:00 267 25.0
2020-Jul-10 10:45 273 1 gusting 3 24.4
2020-Jul-10 10:30 316 25.0
2020-Jul-10 10:15 110 1 gusting 6 24.4
2020-Jul-10 10:00 165 2 gusting 9 24.4
2020-Jul-10 09:45 113 3 gusting 9 23.9
2020-Jul-10 09:30 089 4 gusting 13 24.4
2020-Jul-10 09:15 122 0 gusting 6 25.0
2020-Jul-10 09:01 119 25.0
2020-Jul-10 08:46 100 2 gusting 6 25.0
2020-Jul-10 08:31 127 1 gusting 4 25.6
2020-Jul-10 08:16 117 1 gusting 6 25.6
2020-Jul-10 08:01 134 0 gusting 3 25.6
2020-Jul-10 07:48 069 25.6
2020-Jul-10 07:33 069 25.6
2020-Jul-10 07:30 069 25.6
2020-Jul-10 07:16 069 25.6
2020-Jul-10 07:01 069 25.6
2020-Jul-10 06:46 069 25.6
2020-Jul-10 06:31 069 25.6
2020-Jul-10 06:17 069 25.6
2020-Jul-10 06:02 112 0 gusting 3 26.1
2020-Jul-10 05:46 158 2 gusting 6 26.1
2020-Jul-10 05:31 113 0 gusting 3 25.6
2020-Jul-10 05:16 101 0 gusting 3 25.6
2020-Jul-10 05:01 100 2 gusting 6 26.1
2020-Jul-10 04:46 102 2 gusting 7 26.1
2020-Jul-10 04:31 202 2 gusting 7 26.1
2020-Jul-10 04:17 114 0 gusting 6 26.1
2020-Jul-10 04:01 105 3 gusting 9 26.1
2020-Jul-10 03:46 173 3 gusting 7 26.1
2020-Jul-10 03:31 125 1 gusting 6 26.1
2020-Jul-10 03:15 130 3 gusting 6 26.1
2020-Jul-10 03:00 134 2 gusting 6 26.1
2020-Jul-10 02:46 098 1 gusting 6 26.1
2020-Jul-10 02:31 102 1 gusting 6 26.1
2020-Jul-10 02:16 146 2 gusting 6 26.7
2020-Jul-10 02:00 134 3 gusting 6 26.1
2020-Jul-10 01:46 111 2 gusting 6 26.7
2020-Jul-10 01:31 159 3 gusting 7 26.7
2020-Jul-10 01:15 115 3 gusting 7 26.7
2020-Jul-10 01:00 132 6 gusting 9 26.7
2020-Jul-10 00:46 159 2 gusting 7 26.7
2020-Jul-10 00:30 086 2 gusting 7 26.7
2020-Jul-10 00:16 129 3 gusting 8 27.2
2020-Jul-10 00:00 122 3 gusting 10 27.2
2020-Jul-09 23:46 120 3 gusting 7 27.2
2020-Jul-09 23:30 103 3 gusting 9 27.2
2020-Jul-09 23:16 101 2 gusting 7 27.8
2020-Jul-09 23:00 115 1 gusting 6 28.3
2020-Jul-09 22:46 130 4 gusting 9 28.3
2020-Jul-09 22:31 086 1 gusting 7 28.3
2020-Jul-09 22:15 111 2 gusting 10 28.3
2020-Jul-09 22:00 076 4 gusting 12 28.9
2020-Jul-09 21:45 113 6 gusting 11 28.9
2020-Jul-09 21:30 120 2 gusting 9 29.4
2020-Jul-09 21:15 122 5 gusting 12 29.4
2020-Jul-09 21:00 137 4 gusting 12 30.0
2020-Jul-09 20:45 136 4 gusting 9 29.4
2020-Jul-09 20:30 139 2 gusting 9 30.0
2020-Jul-09 20:15 114 6 gusting 13 30.6
2020-Jul-09 19:45 184 4 gusting 17 30.6
2020-Jul-09 19:30 119 7 gusting 14 30.6
2020-Jul-09 19:15 188 5 gusting 14 30.6
2020-Jul-09 19:00 098 5 gusting 12 31.1
2020-Jul-09 18:45 121 6 gusting 15 30.6
2020-Jul-09 18:30 207 8 gusting 15 31.1
2020-Jul-09 18:15 101 6 gusting 15 31.1
2020-Jul-09 18:00 183 4 gusting 11 31.1
2020-Jul-09 17:46 098 8 gusting 13 31.1
2020-Jul-09 17:31 119 6 gusting 17 31.1
2020-Jul-09 17:16 096 6 gusting 16 31.1
2020-Jul-09 17:02 173 7 gusting 16 31.7
2020-Jul-09 16:46 150 8 gusting 15 31.1
2020-Jul-09 16:31 136 10 gusting 14 31.1
2020-Jul-09 16:17 084 8 gusting 17 30.6
2020-Jul-09 16:01 175 5 gusting 11 31.1
2020-Jul-09 15:47 141 4 gusting 9 31.1
2020-Jul-09 15:32 111 3 gusting 11 30.0
2020-Jul-09 15:16 111 2 gusting 11 30.6
2020-Jul-09 15:01 123 6 gusting 15 30.6
2020-Jul-09 14:46 094 3 gusting 10 30.0
2020-Jul-09 14:31 072 6 gusting 14 28.9
2020-Jul-09 14:16 101 4 gusting 9 29.4
2020-Jul-09 14:01 144 6 gusting 14 28.9
2020-Jul-09 13:45 122 5 gusting 13 28.3
2020-Jul-09 13:30 105 3 gusting 10 28.3
2020-Jul-09 13:15 095 4 gusting 9 28.3
2020-Jul-09 13:01 123 1 gusting 8 27.8
2020-Jul-09 12:46 163 2 gusting 6 27.8
2020-Jul-09 12:30 174 0 gusting 2 28.9
2020-Jul-09 12:15 092 1 gusting 6 27.2
2020-Jul-09 12:00 105 0 gusting 3 27.2
2020-Jul-09 11:45 069 1 gusting 5 27.2
2020-Jul-09 11:30 075 0 gusting 5 27.2
2020-Jul-09 11:15 110 26.7
2020-Jul-09 11:02 076 0 gusting 2 25.6
2020-Jul-09 10:46 101 1 gusting 6 25.6
2020-Jul-09 10:31 175 1 gusting 3 25.6
2020-Jul-09 10:16 173 1 gusting 6 25.0
2020-Jul-09 10:01 111 25.0
2020-Jul-09 09:46 104 2 gusting 5 25.6
2020-Jul-09 09:31 103 3 gusting 6 25.0
2020-Jul-09 09:16 184 1 gusting 3 25.0
2020-Jul-09 09:00 104 0 gusting 5 25.0
2020-Jul-09 08:46 115 1 gusting 6 25.0
2020-Jul-09 08:31 128 1 gusting 6 25.6
2020-Jul-09 08:16 092 2 gusting 6 25.6
2020-Jul-09 08:02 105 25.6
2020-Jul-09 07:45 127 0 gusting 3 25.6
2020-Jul-09 07:32 114 0 gusting 2 25.0
2020-Jul-09 07:17 078 0 gusting 3 25.6
2020-Jul-09 07:01 089 0 gusting 2 25.6
2020-Jul-09 06:46 158 0 gusting 7 25.6
2020-Jul-09 06:31 113 1 gusting 4 25.6
2020-Jul-09 06:15 116 1 gusting 7 25.6
2020-Jul-09 06:01 097 2 gusting 6 26.1
2020-Jul-09 05:45 141 0 gusting 5 25.6
2020-Jul-09 05:31 103 1 gusting 6 25.6
2020-Jul-09 05:15 095 2 gusting 7 26.1
2020-Jul-09 05:00 123 26.1